Volver al catálogo

STARLINK-11728

ActivoComunicacionesVLEO
NORAD 64323·PAYLOAD·🇺🇸 United States

Lanzado Jun 10, 2025 desde Cape Canaveral Space Force Station

Loading…

Próximos Pases (próximas 24 horas)

TLE

ActualizadoSource: CelesTrak SupGP

Época: Sep 14, 2026, 21:05 UTC

1 64323C 25124G   26257.87895833 -.00051968  00000+0 -40341-3 0  2577
2 64323  43.0001 328.4614 0001705 277.4699  67.6396 15.70877381    18

Sigue STARLINK-11728 en tiempo real con AllMySat

Download on the App Store